Location: Newark
(46.7000°N, 60.6000°W)
Time: 22:26:31
(UTC+00:00)

Vanguard 3 - Pass Details

Date: 30 October 2020
Orbit: 508 x 3262 km, 33.3° (Epoch: 28 November)

Event Time Altitude Azimuth Distance (km) Brightness Sun altitude
Rises 10:46:39 0° 250° (WSW) 6,517 11.3 -0.1°
Reaches altitude 10° 10:50:45 10° 246° (WSW) 5,750 11.1 0.5°
Maximum altitude 11:08:43 54° 177° (S) 3,732 10.8 3.4°
Drops below altitude 10° 11:26:07 10° 108° (ESE) 5,592 13.7 6.0°
Sets 11:30:02 0° 104° (ESE) 6,335 13.6 6.6°
